Location: Moscow
(55.7500°N, 37.5830°E)
Time: 04:19:49
(UTC+03:00)

ISS - Visible Passes

Search period start: 17 January 2021 00:00
Search period end: 27 January 2021 00:00
Orbit: 418 x 419 km, 51.6° (Epoch: 17 January)

Date Brightness Start Highest point End Pass type
(mag) Time Alt. Az. Time Alt. Az. Time Alt. Az.
20 Jan -1.1 19:11:30 10° S 19:11:57 12° S 19:11:57 12° S visible
21 Jan -1.3 18:25:07 10° SSE 18:25:55 11° SE 18:26:19 10° SE visible
21 Jan -0.7 19:58:58 10° SW 19:59:17 12° SW 19:59:17 12° SW visible
22 Jan -1.9 19:11:32 10° SSW 19:13:34 22° S 19:13:34 22° S visible
23 Jan -1.9 18:24:13 10° SSW 18:26:40 19° SSE 18:27:49 16° SE visible
23 Jan -1.1 19:59:45 10° WSW 20:00:46 17° SW 20:00:46 17° SW visible
24 Jan -1.4 17:37:09 10° S 17:39:05 14° SSE 17:40:59 10° ESE visible
24 Jan -2.6 19:12:07 10° SW 19:14:57 33° S 19:14:57 33° S visible
25 Jan -2.4 18:24:33 10° SW 18:27:31 29° SSE 18:29:07 19° ESE visible
25 Jan -1.3 20:00:41 10° WSW 20:02:03 21° WSW 20:02:03 21° WSW visible
26 Jan -2.0 17:37:05 10° SSW 17:39:50 23° SSE 17:42:36 10° ESE visible
26 Jan -3.0 19:12:57 10° WSW 19:16:09 40° S 19:16:12 40° S visible
